Track COSMOS 2522 (GLONASS) now! COSMOS 2522 (GLONASS) is classified as:
1 42939U 17055A 23273.04799870 .00000008 00000-0 00000-0 0 9994 2 42939 64.0985 225.7045 0009035 243.0338 116.8470 2.13101935 46851